[[{"header":{"parameterUnit":"m.s-1","parameterCategory":1,"la1":30.2991,"la2":30.254,"lo1":-89.0895,"lo2":-89.0444,"dy":0.0017,"dx":0.0017,"nx":28,"ny":28,"refTime":"2024-03-19T03:00:00:Z","depth":0,"parameterNumber":2,"parameterNumberName":"U-component_of_WINDS"},"data":[0,0,0,0,0,0,0,0,0,0,0,0,0,0,0,0,0,0,0,0,0,0,0,0,0,0,0,0,0,0,0,0,0,0,0,0,0,0,0,0,0,0,0,0,0,0,0,0,0,0,0,0,0,0,0,0,0,0,0.526,0.5261,0,0.535,0.5351,0.5352,0.5399,0.5399,0.5399,0.5399,0.5491,0.5493,0.5495,0,0,0,0,0,0,0,0,0,0,0,0,0,0.5126,0.5129,0.526,0.5261,0.5262,0.535,0.5351,0.5353,0.5399,0.5399,0.5399,0.5399,0.549,0.5493,0.5496,0,0,0,0,0,0,0,0,0,0,0,0,0,0.5197,0.5129,0.526,0.5296,0.53,0.535,0.5351,0.5353,0.5399,0.5399,0.5399,0.5399,0.5489,0.5492,0.5496,0.5516,0,0,0.5507,0.5508,0,0,0,0,0,0,0,0,0.5193,0.5202,0.529,0.5294,0.5299,0.5364,0.5338,0.5408,0.5399,0.5362,0.5399,0.5399,0.5448,0.5455,0.5472,0.552,0.5524,0.5507,0.5509,0.5511,0.5512,0,0,0,0,0,0,0,0.5188,0.5198,0.5296,0.5291,0.5296,0.5307,0.5317,0.5351,0.5403,0.5365,0.5368,0.5378,0.5451,0.5468,0.5474,0.5526,0.5507,0.551,0.5512,0.5514,0.5594,0.5594,0,0,0,0,0,0,0.5178,0.5194,0.5293,0.5298,0.5245,0.531,0.5321,0.5343,0.5403,0.5412,0.5378,0.538,0.5462,0.547,0.5478,0.5505,0.5511,0.5514,0.5516,0.5594,0.5594,0.5594,0,0,0,0,0,0,0.5175,0.5186,0.5289,0.5247,0.5261,0.5312,0.5336,0.5344,0.5362,0.5413,0.5423,0.5387,0.5463,0.5473,0.5506,0.5508,0.5516,0.5519,0.5594,0.5594,0.5594,0.5559,0,0,0,0,0,0,0.5171,0.5185,0.5193,0.5247,0.5263,0.5316,0.5336,0.5346,0.5368,0.5372,0.5424,0.5432,0.5463,0.55,0.5509,0.5513,0.5522,0.5594,0.5594,0.5594,0.556,0.5557,0.5555,0,0,0,0,0,0.5166,0.518,0.5194,0.5205,0.5275,0.5317,0.5326,0.5361,0.5368,0.5377,0.541,0.5431,0.5506,0.5503,0.5514,0.5519,0.5594,0.5594,0.5594,0.5561,0.5558,0.5555,0,0,0,0,0,0,0.5125,0.5188,0.5204,0.5236,0.527,0.5324,0.5337,0.5357,0.5391,0.5392,0.5435,0.5446,0.5475,0.5501,0.5496,0.5541,0.5552,0.5554,0.5524,0.5521,0.5519,0.5512,0.5525,0,0,0,0,0,0.512,0.5149,0.5202,0.5225,0.5242,0.5286,0.5305,0.5329,0.5367,0.5382,0.5417,0.5452,0.5484,0.5504,0.5536,0.5563,0.5575,0.5572,0.557,0.5568,0.5569,0.5585,0.5584,0.5594,0.5594,0.5594,0,0,0.511,0.5148,0.5163,0.5218,0.5248,0.5276,0.5298,0.5327,0.5348,0.5386,0.542,0.5446,0.5488,0.5519,0.5534,0.5541,0.5569,0.5568,0.5566,0.5568,0.5584,0.5583,0.5582,0.5594,0.5594,0.5594,0,0,0.5106,0.5137,0.516,0.5189,0.5233,0.5263,0.5268,0.5318,0.5338,0.5372,0.54,0.5426,0.548,0.5508,0.553,0.5534,0.5555,0.5543,0.5532,0.5546,0.5545,0.5545,0.5546,0.5546,0.5544,0.5544,0.5544,0,0.5088,0.5132,0.5169,0.5196,0.5219,0.5254,0.5277,0.5303,0.5355,0.537,0.5377,0.5444,0.5475,0.5512,0.5513,0.5529,0.5536,0.5538,0.5543,0.5543,0.5543,0.5544,0.5544,0.5543,0.5543,0.5543,0.5543,0,0.5106,0.5136,0.5149,0.5199,0.5223,0.5247,0.5288,0.5307,0.5329,0.5357,0.539,0.5428,0.5468,0.5479,0.55,0.5518,0.5521,0.5535,0.5547,0.5539,0.5541,0.5542,0.554,0.5541,0.5541,0.5542,0,0,0.5081,0.515,0.5154,0.5176,0.5227,0.525,0.5276,0.5315,0.533,0.5365,0.5387,0.5431,0.5444,0.5468,0.5493,0.5505,0.5505,0.5518,0.5519,0.5514,0.5527,0.5516,0.5516,0.5519,0.5519,0.552,0.5523,0,0.5084,0.5132,0.5165,0.52,0.5227,0.526,0.5282,0.5315,0.5342,0.5368,0.5397,0.5428,0.5442,0.5457,0.5471,0.5502,0.5509,0.5503,0.554,0.554,0.5528,0.5517,0.5506,0.5507,0.5524,0.5524,0.5524,0,0.5094,0.5127,0.5164,0.5211,0.5224,0.5243,0.5281,0.5306,0.5343,0.5361,0.5388,0.5413,0.544,0.5449,0.5487,0.5482,0.5499,0.5517,0.5518,0.5523,0.5532,0.5521,0.5509,0.5509,0.5526,0.5526,0.5526,0,0.5071,0.5125,0.5154,0.5172,0.5227,0.524,0.5263,0.5301,0.5322,0.5354,0.5368,0.5403,0.5422,0.5449,0.5482,0.5486,0.5516,0.5529,0.5532,0.5531,0.5537,0.5536,0.5527,0.5548,0.5548,0.5548,0.5548,0,0.5071,0.5092,0.5144,0.5162,0.5186,0.5224,0.5247,0.5273,0.5306,0.5329,0.5359,0.538,0.5423,0.5449,0.5475,0.5502,0.5511,0.5526,0.5532,0.5523,0.5521,0.5535,0.5535,0.5548,0.5548,0.5548,0.5548,0,0.505,0.5086,0.5119,0.5168,0.5181,0.5196,0.5238,0.5256,0.5283,0.5312,0.5321,0.5364,0.5395,0.5431,0.5475,0.5493,0.5517,0.5527,0.5505,0.5508,0.5509,0.5509,0.5509,0.551,0.553,0.553,0.5529,0,0.5048,0.5065,0.5115,0.5132,0.5155,0.5183,0.5204,0.5241,0.5261,0.5304,0.5317,0.5351,0.538,0.5429,0.5463,0.5497,0.5507,0.5505,0.5513,0.5502,0.5507,0.5505,0.5507,0.5503,0.5503,0.5502,0.5502,0,0.504,0.5056,0.5085,0.512,0.5144,0.5173,0.5204,0.5216,0.5259,0.528,0.5313,0.5335,0.5379,0.5412,0.5449,0.5473,0.5494,0.5499,0.5502,0.5492,0.5478,0.5485,0.5498,0.5499,0.5499,0.55,0.55,0.55,0.5028,0.5044,0.5082,0.5113,0.5139,0.5166,0.5185,0.5215,0.5242,0.5281,0.5301,0.5333,0.5368,0.542,0.5443,0.5468,0.5475,0.5479,0.548,0.548,0.5477,0.5474,0.5475,0.5475,0.5475,0.5476,0.5476,0,0.5021,0.5046,0.5074,0.5116,0.514,0.5157,0.5191,0.521,0.5238,0.5269,0.5297,0.5333,0.5365,0.5401,0.5435,0.5448,0.5459,0.5456,0.5455,0.546,0.5469,0.5464,0.5447,0.5447,0.5447,0.5447,0.5447,0.5447,0.5021,0.5049,0.5069,0.511,0.5135,0.5166,0.5184,0.5209,0.5234,0.5273,0.5299,0.5323,0.5356,0.5392,0.5422,0.5432,0.5442,0.5436,0.5449,0.5457,0.546,0.5462,0.5457,0.5439,0.5439,0.5438,0.5438,0.5438]},{"header":{"parameterUnit":"m.s-1","parameterCategory":1,"la1":30.2991,"la2":30.254,"lo1":-89.0895,"lo2":-89.0444,"dy":0.0017,"dx":0.0017,"nx":28,"ny":28,"refTime":"2024-03-19T03:00:00:Z","depth":0,"parameterNumber":3,"parameterNumberName":"V-component_of_WINDS"},"data":[0,0,0,0,0,0,0,0,0,0,0,0,0,0,0,0,0,0,0,0,0,0,0,0,0,0,0,0,0,0,0,0,0,0,0,0,0,0,0,0,0,0,0,0,0,0,0,0,0,0,0,0,0,0,0,0,0,0,2.1776,2.1776,0,2.1806,2.1806,2.1806,2.1766,2.1765,2.1763,2.1762,2.1792,2.1794,2.1796,0,0,0,0,0,0,0,0,0,0,0,0,0,2.1684,2.1685,2.1776,2.1776,2.1777,2.1806,2.1806,2.1806,2.1766,2.1765,2.1763,2.1761,2.1791,2.1794,2.1796,0,0,0,0,0,0,0,0,0,0,0,0,0,2.172,2.1686,2.1776,2.176,2.1759,2.1805,2.1806,2.1806,2.1767,2.1765,2.1762,2.176,2.179,2.1794,2.1797,2.186,0,0,2.1807,2.1808,0,0,0,0,0,0,0,0,2.1718,2.1723,2.1762,2.1761,2.176,2.178,2.1784,2.1824,2.1767,2.1764,2.1762,2.1759,2.179,2.1793,2.1803,2.1861,2.1863,2.1807,2.1809,2.181,2.1811,0,0,0,0,0,0,0,2.1715,2.1721,2.1788,2.1763,2.1762,2.1751,2.1754,2.1792,2.1789,2.1764,2.1761,2.1765,2.1789,2.18,2.1804,2.1863,2.1807,2.181,2.1812,2.1813,2.1972,2.1974,0,0,0,0,0,0,2.1715,2.172,2.1787,2.1789,2.1733,2.1755,2.1758,2.1776,2.1788,2.1788,2.1767,2.1763,2.1796,2.18,2.1804,2.1878,2.181,2.1813,2.1815,2.197,2.1972,2.1975,0,0,0,0,0,0,2.1713,2.1721,2.1786,2.1753,2.1761,2.1759,2.1779,2.1778,2.1789,2.179,2.1789,2.1779,2.1794,2.18,2.1846,2.1878,2.1815,2.1818,2.1967,2.197,2.1974,2.2025,0,0,0,0,0,0,2.171,2.1721,2.1745,2.1754,2.1763,2.1827,2.1781,2.178,2.1795,2.179,2.1802,2.1801,2.1793,2.1841,2.1849,2.1881,2.182,2.1964,2.1968,2.1973,2.2021,2.203,2.2038,0,0,0,0,0,2.1707,2.1759,2.1746,2.1755,2.1793,2.1829,2.1834,2.1823,2.1797,2.1821,2.1822,2.1801,2.1873,2.1846,2.1855,2.1889,2.1962,2.1967,2.1972,2.2017,2.2028,2.2038,0,0,0,0,0,0,2.1754,2.176,2.1746,2.1803,2.1816,2.1822,2.1853,2.1836,2.1857,2.1851,2.1837,2.184,2.1889,2.1893,2.1863,2.1949,2.1913,2.192,2.1944,2.1955,2.1964,2.1961,2.1823,0,0,0,0,0,2.1771,2.18,2.1803,2.1853,2.186,2.1855,2.187,2.1861,2.1874,2.1879,2.1883,2.1896,2.1921,2.1939,2.1962,2.2021,2.2022,2.2048,2.2057,2.2064,2.207,2.21,2.2111,2.1992,2.1992,2.1992,0,0,2.1806,2.1813,2.1832,2.1862,2.1871,2.1901,2.186,2.1894,2.1915,2.1884,2.1927,2.1931,2.1944,2.1996,2.202,2.2002,2.2104,2.2071,2.2077,2.2079,2.2106,2.2118,2.2128,2.1995,2.1995,2.1994,0,0,2.1885,2.1894,2.1935,2.1944,2.1958,2.1954,2.1964,2.1973,2.1974,2.2017,2.1994,2.2019,2.2064,2.2074,2.2085,2.2165,2.2146,2.2174,2.2219,2.2248,2.2257,2.2266,2.2293,2.2303,2.218,2.218,2.218,0,2.1927,2.1971,2.1958,2.1993,2.2006,2.1979,2.2019,2.2029,2.205,2.206,2.2039,2.2093,2.2101,2.2154,2.2174,2.2184,2.2194,2.2172,2.2257,2.2265,2.2273,2.2299,2.2309,2.2183,2.2183,2.2182,2.2182,0,2.2021,2.2052,2.2084,2.2104,2.212,2.2158,2.215,2.2168,2.2157,2.2155,2.2198,2.2206,2.223,2.2242,2.2231,2.2293,2.2281,2.2259,2.2223,2.2287,2.2311,2.2321,2.2188,2.2186,2.2185,2.2185,0,0,2.2132,2.2143,2.2155,2.2162,2.2175,2.2198,2.2234,2.2257,2.2272,2.2287,2.2316,2.2353,2.2332,2.2345,2.2335,2.2361,2.2422,2.2335,2.2335,2.235,2.2489,2.2505,2.2516,2.241,2.2412,2.2413,2.2487,0,2.221,2.2271,2.226,2.232,2.2347,2.232,2.2351,2.2362,2.236,2.2383,2.2381,2.2408,2.2379,2.2386,2.241,2.241,2.245,2.2404,2.2435,2.2437,2.2432,2.2529,2.2546,2.2616,2.2497,2.2498,2.25,0,2.2309,2.2327,2.2389,2.2395,2.2406,2.2434,2.2453,2.2475,2.2486,2.2483,2.2496,2.2481,2.2515,2.2479,2.2525,2.2495,2.2507,2.2508,2.251,2.2512,2.2472,2.2533,2.2638,2.2648,2.2515,2.2513,2.2512,0,2.2381,2.2421,2.2463,2.247,2.2479,2.2499,2.2504,2.2512,2.2526,2.2543,2.2551,2.2572,2.2583,2.2599,2.2589,2.2564,2.2637,2.26,2.2635,2.2635,2.2651,2.265,2.2759,2.266,2.266,2.266,2.266,0,2.2469,2.2508,2.2495,2.2521,2.2563,2.2549,2.2591,2.2592,2.26,2.2625,2.2603,2.2627,2.2613,2.2636,2.2628,2.2667,2.2673,2.267,2.2668,2.2672,2.2672,2.2679,2.2674,2.2663,2.2662,2.2662,2.2661,0,2.2557,2.255,2.2594,2.2598,2.26,2.263,2.2634,2.2657,2.2654,2.2685,2.2692,2.2687,2.2712,2.2704,2.2731,2.2726,2.2775,2.2766,2.2771,2.2768,2.2803,2.2799,2.292,2.2934,2.2827,2.2828,2.2829,0,2.2613,2.2642,2.2649,2.2664,2.2669,2.2694,2.2708,2.2694,2.2709,2.2723,2.2744,2.2767,2.2785,2.2826,2.2825,2.2845,2.2836,2.2877,2.2839,2.2841,2.2835,2.2833,2.2835,2.2884,2.2885,2.2886,2.2887,0,2.2713,2.2707,2.2728,2.2747,2.2763,2.2778,2.279,2.2803,2.2791,2.2809,2.2834,2.2847,2.2874,2.2897,2.2915,2.2919,2.2901,2.2899,2.2908,2.2912,2.2913,2.2911,2.279,2.2896,2.2895,2.2895,2.2894,2.2894,2.2786,2.2809,2.2817,2.284,2.2848,2.2859,2.2881,2.288,2.29,2.2921,2.2912,2.294,2.2949,2.2971,2.2977,2.2999,2.2983,2.2996,2.2999,2.3003,2.3006,2.291,2.3002,2.3002,2.3002,2.3001,2.3001,0,2.2883,2.2886,2.2907,2.2925,2.2942,2.2923,2.2936,2.2952,2.2977,2.2986,2.3003,2.3031,2.3053,2.3052,2.3072,2.3089,2.3081,2.3095,2.3093,2.3094,2.302,2.301,2.3101,2.3101,2.3101,2.3101,2.3101,2.3101,2.2936,2.2974,2.2969,2.3011,2.3014,2.3041,2.305,2.306,2.3067,2.3099,2.3116,2.3116,2.312,2.314,2.3158,2.3158,2.3165,2.3182,2.3178,2.3109,2.3099,2.309,2.308,2.3184,2.3184,2.3249,2.325,2.325]}]]